"Pseudo-MPEC" for C3HW7P2

Created 2020 Oct 25 13:07:06 UT using Find_Orb

Click here for an explanation of pseudo-MPECs

 
 Astrometry: 
     C3HW7P2  C2020 10 16.12177622 11 43.31 +09 51 44.7    ~AG3q 22.43GVNEOCPG96
     C3HW7P2  C2020 10 16.12743822 11 45.46 +09 51 26.2    ~AG3q 21.78GVNEOCPG96
     C3HW7P2  C2020 10 16.13309922 11 47.71 +09 51 08.7    ~AG3q 21.60GVNEOCPG96
     C3HW7P2  C2020 10 16.13876022 11 49.91 +09 50 50.4    ~AG3q 22.26GVNEOCPG96
     C3HW7P2 KC2020 10 16.21730122 12 20.16 +09 46 39.4    ~AG5q 23.68GVNEOCPV06
     C3HW7P2 KC2020 10 16.22364122 12 22.67 +09 46 18.2    ~AG5q 22.41GVNEOCPV06
     C3HW7P2 KC2020 10 16.22997722 12 25.08 +09 45 59.0    ~AG5q 22.81GVNEOCPV06

Station data:
(G96) Mt. Lemmon Survey  (N32.442754 W110.788720)  US/Arizona.  Observers T.
   A. Pruyne, B. M. Africano, E. J. Christensen, G. A. Farneth, D. C. Fuls,
   A. R. Gibbs, A. D. Grauer, H. Gröller, J. A. Johnson, R. A. Kowalski, S.
   M. Larson, G. J. Leonard, D. Rankin, R. L. Seaman, F. C. Shelly. 1.5-m
   reflector + 10K CCD.
(V06) Catalina Sky Survey-Kuiper  (N32.416847 W110.732550)  US/Arizona.
   Observers T. A. Pruyne, B. M. Africano, E. J. Christensen, G. A. Farneth,
   D. C. Fuls, A. R. Gibbs, A. D. Grauer, H. Gröller, J. A. Johnson, R. A.
   Kowalski, S. M. Larson, G. J. Leonard, D. Rankin, R. L. Seaman, F. C.
   Shelly. 1.55-m reflector + CCD.

Orbital elements:  C3HW7P2
   Perihelion 2020 Jul 21.621598 +/- 32.3 TT = 14:55:06 (JD 2459052.121598)
Epoch 2020 Oct 16.0 TT = JDT 2459138.5   Earth MOID: 0.0001   AutoNEOCP
M  79.57525907 +/- 38               (J2000 ecliptic)
n   0.92124023 +/- 0.367            Peri.   70.83551 +/- 70
a   1.04605403 +/- 0.278            Node   219.89885 +/- 47
e   0.0902667 +/- 0.161             Incl.    3.33222 +/- 5.1
P   1.07/390.77d           H 27.1   G  0.15   U 12.1  SR
q 0.95163010 +/- 0.243    Q 1.14047796 +/- 0.981
From 7 observations 2020 Oct. 16 (2.6 hr); mean residual 0".38
Residuals in arcseconds: 
201016 G96  .04+  .32+    201016 G96  .41+  .20-    201016 V06  .26-  .61+    
201016 G96  .62-  .27-    201016 V06  .28-  .06+    
201016 G96  .24+  .15+    201016 V06  .49+  .67-    

Ephemerides (geocentric):
Date (UTC) HH   RA              Dec         delta   r     elong  mag " sig PA
---- -- -- --  -------------   -----------  ------ ------ -----  --- ---- ---
2020 10 25 13  23 07 44.466   +03 20 58.41  .07773 1.0519 136.4 23.3 292'  26
2020 10 25 14  23 07 56.503   +03 19 41.98  .07783 1.0519 136.4 23.3 294'  26
2020 10 25 15  23 08 08.521   +03 18 25.77  .07792 1.0520 136.4 23.3 297'  26
2020 10 25 16  23 08 20.519   +03 17 09.78  .07802 1.0520 136.4 23.3 299'  26
2020 10 25 17  23 08 32.496   +03 15 54.00  .07811 1.0521 136.4 23.3 302'  26
2020 10 25 18  23 08 44.454   +03 14 38.43  .07821 1.0522 136.4 23.3 304'  26
2020 10 25 19  23 08 56.391   +03 13 23.08  .07830 1.0522 136.4 23.3 306'  26
2020 10 25 20  23 09 08.309   +03 12 07.94  .07840 1.0523 136.4 23.3 309'  26
2020 10 25 21  23 09 20.207   +03 10 53.02  .07850 1.0524 136.4 23.3 311'  26
2020 10 25 22  23 09 32.085   +03 09 38.31  .07859 1.0524 136.4 23.3 314'  26
2020 10 25 23  23 09 43.943   +03 08 23.82  .07869 1.0525 136.4 23.3 316'  26
2020 10 26 00  23 09 55.782   +03 07 09.53  .07878 1.0525 136.4 23.3 319'  26
2020 10 26 01  23 10 07.601   +03 05 55.46  .07888 1.0526 136.4 23.3 321'  26
2020 10 26 02  23 10 19.401   +03 04 41.60  .07897 1.0527 136.4 23.3 324'  26
2020 10 26 03  23 10 31.181   +03 03 27.95  .07907 1.0527 136.4 23.3 326'  26
2020 10 26 04  23 10 42.941   +03 02 14.52  .07917 1.0528 136.4 23.3 329'  26
2020 10 26 05  23 10 54.682   +03 01 01.29  .07926 1.0529 136.4 23.3 331'  26
2020 10 26 06  23 11 06.404   +02 59 48.28  .07936 1.0529 136.4 23.3 334'  26
2020 10 26 07  23 11 18.107   +02 58 35.47  .07946 1.0530 136.4 23.3 337'  26
2020 10 26 08  23 11 29.790   +02 57 22.87  .07955 1.0530 136.4 23.3 339'  26
2020 10 26 09  23 11 41.455   +02 56 10.48  .07965 1.0531 136.4 23.3 342'  26
2020 10 26 10  23 11 53.100   +02 54 58.30  .07975 1.0532 136.4 23.3 344'  25
2020 10 26 11  23 12 04.726   +02 53 46.33  .07984 1.0532 136.4 23.3 347'  25
2020 10 26 12  23 12 16.333   +02 52 34.57  .07994 1.0533 136.4 23.3 349'  25
2020 10 26 13  23 12 27.921   +02 51 23.01  .08004 1.0534 136.4 23.3 352'  25
2020 10 26 14  23 12 39.490   +02 50 11.66  .08013 1.0534 136.4 23.3 355'  25
2020 10 26 15  23 12 51.040   +02 49 00.52  .08023 1.0535 136.4 23.3 357'  25
2020 10 26 16  23 13 02.571   +02 47 49.59  .08033 1.0535 136.4 23.3 360'  25
2020 10 26 17  23 13 14.084   +02 46 38.85  .08043 1.0536 136.4 23.3 362'  25
2020 10 26 18  23 13 25.578   +02 45 28.33  .08052 1.0537 136.4 23.3 365'  25
2020 10 26 19  23 13 37.053   +02 44 18.01  .08062 1.0537 136.4 23.3 368'  25
2020 10 26 20  23 13 48.510   +02 43 07.89  .08072 1.0538 136.4 23.3 370'  25
2020 10 26 21  23 13 59.948   +02 41 57.98  .08082 1.0539 136.4 23.3 373'  25
2020 10 26 22  23 14 11.368   +02 40 48.27  .08091 1.0539 136.4 23.3 376'  25
2020 10 26 23  23 14 22.769   +02 39 38.77  .08101 1.0540 136.4 23.3 378'  25
2020 10 27 00  23 14 34.152   +02 38 29.47  .08111 1.0540 136.4 23.4 381'  25
2020 10 27 01  23 14 45.517   +02 37 20.37  .08121 1.0541 136.4 23.4 384'  25
2020 10 27 02  23 14 56.863   +02 36 11.47  .08131 1.0542 136.4 23.4 386'  25
2020 10 27 03  23 15 08.191   +02 35 02.77  .08140 1.0542 136.4 23.4 389'  25
2020 10 27 04  23 15 19.501   +02 33 54.28  .08150 1.0543 136.4 23.4 392'  25
2020 10 27 05  23 15 30.792   +02 32 45.99  .08160 1.0544 136.4 23.4 394'  25
2020 10 27 06  23 15 42.066   +02 31 37.89  .08170 1.0544 136.4 23.4 397'  25
2020 10 27 07  23 15 53.321   +02 30 30.00  .08180 1.0545 136.4 23.4 400'  25
2020 10 27 08  23 16 04.559   +02 29 22.31  .08190 1.0545 136.4 23.4 402'  25
2020 10 27 09  23 16 15.779   +02 28 14.81  .08199 1.0546 136.4 23.4 405'  25
2020 10 27 10  23 16 26.980   +02 27 07.52  .08209 1.0547 136.4 23.4 408'  25
2020 10 27 11  23 16 38.164   +02 26 00.42  .08219 1.0547 136.4 23.4 410'  25
2020 10 27 12  23 16 49.330   +02 24 53.53  .08229 1.0548 136.4 23.4 413'  25